FW7847 Weather Reports


time (UTC)temp
F
wind
direction
speed
knots
gust
knots
rain 1hr
in
rain 24hr
in
rain mn
in
humidity
%
barometer
mb
20260506180052 49 308 7.8 16.5 0.00 0.00 0.00 52 1013.9
20260506175548 50 312 6.1 13.0 0.00 0.00 0.00 51 1013.9
20260506175045 50 248 3.5 7.8 0.00 0.00 0.00 54 1014.1
20260506174544 49 146 2.6 16.5 0.00 0.00 0.00 50 1014.2
20260506174039 50 320 7.8 13.0 0.00 0.00 0.00 51 1014.3
20260506173538 50 152 2.6 8.7 0.00 0.00 0.00 50 1014.2
20260506173034 49 270 7.0 13.0 0.00 0.00 0.00 53 1014.4
20260506172532 49 250 1.7 4.3 0.00 0.00 0.00 55 1014.5
20260506172028 48 239 1.7 16.5 0.00 0.00 0.00 55 1014.4
20260506171525 50 233 8.7 13.0 0.00 0.00 0.00 56 1014.2
20260506171023 48 242 1.7 10.4 0.00 0.00 0.00 57 1014.1
20260506170520 48 282 5.2 13.0 0.00 0.00 0.00 57 1014.1
20260506170018 48 306 7.8 10.4 0.00 0.00 0.00 59 1014.3
20260506165516 48 272 5.2 10.4 0.00 0.00 0.00 60 1014.4
20260506165012 48 277 4.3 12.2 0.00 0.00 0.00 60 1014.4
20260506164509 48 277 0.9 8.7 0.00 0.00 0.00 58 1014.2
20260506164006 48 261 4.3 7.8 0.00 0.00 0.00 57 1014.0
20260506163502 48 250 6.1 10.4 0.00 0.00 0.00 57 1014.0
20260506162956 48 290 10.4 13.0 0.00 0.00 0.00 58 1014.1
20260506162454 48 264 4.3 4.3 0.00 0.00 0.00 58 1014.3
20260506161951 48 317 7.0 13.0 0.00 0.00 0.00 58 1014.4
20260506161449 48 52 0.9 8.7 0.00 0.00 0.00 59 1014.3
20260506160946 49 256 17.4 20.9 0.00 0.00 0.00 56 1014.2
20260506160443 50 33 1.7 2.6 0.00 0.00 0.00 57 1014.1
20260506155940 48 233 3.5 4.3 0.00 0.00 0.00 60 1014.1
20260506155438 48 294 7.8 10.4 0.00 0.00 0.00 58 1014.0
20260506153605 50 278 8.7 13.0 0.00 0.00 0.00 57 1013.7
20260506153102 50 238 7.8 12.2 0.00 0.00 0.00 57 1013.7
20260506152559 48 317 5.2 7.8 0.00 0.00 0.00 58 1013.8
20260506152057 49 310 10.4 20.9 0.00 0.00 0.00 58 1013.9
20260506151555 50 236 3.5 8.7 0.00 0.00 0.00 56 1013.8
20260506151052 49 270 7.0 12.2 0.00 0.00 0.00 55 1013.8
20260506150548 49 272 3.5 13.0 0.00 0.00 0.00 56 1013.7
20260506150045 48 232 7.0 7.8 0.00 0.00 0.00 57 1013.6
20260506145542 47 225 1.7 7.8 0.00 0.00 0.00 63 1013.7
20260506145039 49 248 5.2 6.1 0.00 0.00 0.00 63 1013.5
20260506144536 49 236 1.7 4.3 0.00 0.00 0.00 65 1013.5
20260506144033 48 22 6.1 7.8 0.00 0.00 0.00 67 1013.5
20260506143531 49 268 2.6 4.3 0.00 0.00 0.00 66 1013.5
20260506143029 49 232 0.9 1.7 0.00 0.00 0.00 66 1013.5
20260506142526 47 336 6.1 7.8 0.00 0.00 0.00 69 1013.6
20260506142025 47 347 7.0 8.7 0.00 0.00 0.00 69 1013.4
20260506141522 47 61 2.6 4.3 0.00 0.00 0.00 70 1013.3
20260506141020 47 283 5.2 10.4 0.00 0.00 0.00 70 1013.5
20260506140517 46 253 2.6 6.1 0.00 0.00 0.00 70 1013.4
20260506140015 45 257 1.7 7.8 0.00 0.00 0.00 72 1013.3
20260506135511 46 333 5.2 8.7 0.00 0.00 0.00 71 1013.2
20260506135007 46 271 1.7 6.1 0.00 0.00 0.00 71 1013.2
20260506134504 46 254 1.7 7.8 0.00 0.00 0.00 71 1013.3
20260506134000 45 309 3.5 10.4 0.00 0.00 0.00 72 1013.3
20260506133457 46 247 0.9 7.8 0.00 0.00 0.00 71 1013.0
20260506132954 47 241 4.3 8.7 0.00 0.00 0.00 71 1013.0
20260506132451 46 276 6.1 12.2 0.00 0.00 0.00 73 1012.8
20260506131948 47 244 1.7 8.7 0.00 0.00 0.00 74 1012.6
20260506131445 45 288 7.0 8.7 0.00 0.00 0.00 77 1012.5
20260506130942 46 296 5.2 10.4 0.00 0.00 0.00 76 1012.5
20260506130439 46 272 3.5 6.1 0.00 0.00 0.00 78 1012.5
20260506125936 45 253 3.5 7.8 0.00 0.00 0.00 80 1012.4
20260506125435 46 306 8.7 12.2 0.00 0.00 0.00 80 1012.5
20260506124932 45 266 3.5 8.7 0.00 0.00 0.00 81 1012.4
20260506124430 46 269 3.5 7.8 0.00 0.00 0.00 79 1012.4
20260506123927 45 282 2.6 7.8 0.00 0.00 0.00 80 1011.9
20260506123425 46 277 7.0 8.7 0.00 0.00 0.00 79 1012.2
20260506122922 44 262 4.3 14.8 0.00 0.00 0.00 81 1012.2
20260506122419 45 285 6.1 8.7 0.00 0.00 0.00 81 1012.1
20260506121918 45 349 6.1 7.8 0.00 0.00 0.00 81 1012.0
20260506121414 45 286 3.5 4.3 0.00 0.00 0.00 80 1011.9
20260506120911 44 249 4.3 4.3 0.00 0.00 0.00 81 1011.7
20260506120409 44 251 4.3 4.3 0.00 0.00 0.00 81 1011.7
20260506115906 44 232 0.0 4.3 0.00 0.00 0.00 80 1011.8
20260506115404 44 270 6.1 7.8 0.00 0.00 0.00 79 1011.7
20260506114902 44 238 2.6 4.3 0.00 0.00 0.00 79 1011.6
20260506114359 44 232 1.7 7.8 0.00 0.00 0.00 79 1011.6
20260506113858 43 232 0.9 2.6 0.00 0.00 0.00 80 1011.6
20260506113355 42 256 2.6 4.3 0.00 0.00 0.00 80 1011.6
20260506112851 42 239 1.7 2.6 0.00 0.00 0.00 80 1011.6
20260506112348 42 239 1.7 2.6 0.00 0.00 0.00 80 1011.6
20260506111846 42 239 1.7 2.6 0.00 0.00 0.00 80 1011.5
20260506111344 42 246 0.9 2.6 0.00 0.00 0.00 80 1011.2
20260506110841 42 241 0.9 2.6 0.00 0.00 0.00 80 1011.2
20260506110338 42 238 1.7 1.7 0.00 0.00 0.00 80 1011.3
20260506105835 42 236 0.0 2.6 0.00 0.00 0.00 79 1010.9
20260506105331 42 260 1.7 2.6 0.00 0.00 0.00 79 1011.0
20260506104829 42 238 0.9 1.7 0.00 0.00 0.00 78 1010.9
20260506104327 42 236 0.9 2.6 0.00 0.00 0.00 78 1010.9
20260506103824 42 236 0.0 1.7 0.00 0.00 0.00 77 1010.7
20260506103321 43 236 0.0 1.7 0.00 0.00 0.00 76 1010.9
20260506102819 43 246 1.7 2.6 0.00 0.00 0.00 76 1010.8
20260506102316 43 234 0.0 2.6 0.00 0.00 0.00 75 1010.8
20260506101814 44 260 1.7 4.3 0.00 0.00 0.00 74 1011.0
20260506101309 44 253 1.7 4.3 0.00 0.00 0.00 73 1010.9
20260506100808 44 265 2.6 8.7 0.00 0.00 0.00 73 1010.8
20260506100306 44 239 0.0 4.3 0.00 0.00 0.00 72 1010.7
20260506095804 44 237 2.6 4.3 0.00 0.00 0.00 72 1010.6
20260506095300 44 233 2.6 4.3 0.00 0.00 0.00 71 1010.5
20260506094757 44 258 3.5 4.3 0.00 0.00 0.00 72 1010.3
20260506094256 44 253 2.6 4.3 0.00 0.00 0.00 71 1010.2
20260506093754 44 235 1.7 6.1 0.00 0.00 0.00 71 1010.3
20260506093250 45 231 2.6 2.6 0.00 0.00 0.00 70 1010.0
20260506092749 45 268 2.6 4.3 0.00 0.00 0.00 70 1010.0
20260506092246 45 268 2.6 4.3 0.00 0.00 0.00 69 1010.2
20260506091743 45 235 0.0 2.6 0.00 0.00 0.00 69 1010.3
20260506091241 45 237 0.9 2.6 0.00 0.00 0.00 69 1010.3
20260506090738 45 248 2.6 7.8 0.00 0.00 0.00 69 1010.2
20260506090235 45 290 2.6 4.3 0.00 0.00 0.00 68 1010.1
20260506085732 45 242 1.7 2.6 0.00 0.00 0.00 68 1010.2
20260506085228 45 237 0.9 1.7 0.00 0.00 0.00 68 1010.1
20260506084725 45 236 1.7 1.7 0.00 0.00 0.00 68 1010.1
20260506084221 45 234 0.0 2.6 0.00 0.00 0.00 67 1010.0
20260506083718 45 236 0.0 2.6 0.00 0.00 0.00 67 1010.0
20260506083216 45 260 5.2 6.1 0.00 0.00 0.00 67 1010.2
20260506082713 45 256 2.6 8.7 0.00 0.00 0.00 67 1010.1
20260506082208 45 239 1.7 4.3 0.00 0.00 0.00 67 1010.0
20260506081706 45 232 0.9 1.7 0.00 0.00 0.00 67 1010.1
20260506081204 45 239 1.7 2.6 0.00 0.00 0.00 67 1010.2
20260506080701 45 249 2.6 4.3 0.00 0.00 0.00 66 1010.0
20260506080158 45 242 0.0 1.7 0.00 0.00 0.00 66 1010.2
20260506073142 46 250 0.0 2.6 0.00 0.00 0.00 64 1010.1
20260506072638 46 261 2.6 4.3 0.00 0.00 0.00 65 1009.9
20260506072137 46 252 5.2 8.7 0.00 0.00 0.00 64 1010.1
20260506071634 46 245 0.9 4.3 0.00 0.00 0.00 64 1009.9
20260506071131 46 229 0.0 1.7 0.00 0.00 0.00 64 1009.8
20260506070628 46 235 2.6 2.6 0.00 0.00 0.00 64 1010.1
20260506070125 46 246 4.3 6.1 0.00 0.00 0.00 63 1010.0
20260506062057 47 236 1.7 2.6 0.00 0.00 0.00 64 1010.0
20260506061552 47 262 1.7 2.6 0.00 0.00 0.00 64 1010.2
20260506061050 47 236 3.5 4.3 0.00 0.00 0.00 64 1010.3
20260506060548 47 221 0.0 2.6 0.00 0.00 0.00 66 1010.4
20260506051017 48 234 0.0 1.7 0.00 0.00 0.00 64 1009.9
20260506050515 48 276 5.2 7.8 0.00 0.00 0.00 62 1009.8
20260506045005 48 243 2.6 6.1 0.00 0.00 0.00 62 1010.3
20260506044503 48 234 1.7 4.3 0.00 0.00 0.00 63 1010.2
20260506043959 48 248 4.3 6.1 0.00 0.00 0.00 63 1010.2
20260506043457 48 240 3.5 6.1 0.00 0.00 0.00 62 1010.0
20260506042955 48 233 0.9 2.6 0.00 0.00 0.00 62 1010.0
20260506042454 48 235 1.7 4.3 0.00 0.00 0.00 61 1009.7
20260506041952 48 236 3.5 8.7 0.00 0.00 0.00 61 1009.9
20260506041450 48 253 4.3 7.8 0.00 0.00 0.00 61 1009.5
20260506040947 48 252 4.3 8.7 0.00 0.00 0.00 61 1009.9
20260506040444 48 246 4.3 7.8 0.00 0.00 0.00 62 1010.0
20260506035940 48 243 3.5 7.8 0.00 0.06 0.06 64 1010.0
20260506035437 48 241 2.6 4.3 0.00 0.06 0.06 64 1009.8
20260506034934 48 257 4.3 8.7 0.00 0.06 0.06 61 1010.1
20260506034431 48 247 2.6 7.8 0.00 0.06 0.06 61 1009.9
20260506033928 48 240 4.3 8.7 0.00 0.06 0.06 62 1010.1
20260506033426 48 232 1.7 7.8 0.00 0.06 0.06 63 1009.9
20260506032922 48 221 0.0 1.7 0.00 0.06 0.06 62 1010.0
20260506032419 48 235 2.6 4.3 0.00 0.06 0.06 62 1010.2
20260506031916 48 230 0.0 1.7 0.00 0.06 0.06 64 1010.0
20260506031413 48 227 0.0 0.0 0.00 0.06 0.06 63 1010.1
20260506030911 48 235 0.9 4.3 0.00 0.06 0.06 65 1010.3
20260506030409 48 235 0.0 2.6 0.00 0.06 0.06 65 1009.9
20260506025905 48 233 6.1 10.4 0.00 0.06 0.06 61 1010.1
20260506025402 48 253 4.3 7.8 0.00 0.06 0.06 60 1009.9
20260506024859 48 228 0.0 0.0 0.00 0.06 0.06 60 1010.0
20260506024356 49 237 1.7 1.7 0.00 0.06 0.06 60 1010.2
20260506023852 49 235 2.6 4.3 0.00 0.06 0.06 60 1010.2
20260506023349 49 234 2.6 6.1 0.00 0.06 0.06 59 1010.1
20260506022846 49 235 0.0 4.3 0.00 0.06 0.06 61 1010.1
20260506022343 49 251 4.3 6.1 0.00 0.06 0.06 58 1009.9
20260506021841 49 228 0.0 1.7 0.00 0.06 0.06 58 1010.0
20260506021338 49 237 0.9 2.6 0.00 0.06 0.06 59 1009.8
20260506020834 49 253 1.7 4.3 0.00 0.06 0.06 57 1010.0
20260506020333 49 234 0.0 1.7 0.00 0.06 0.06 61 1009.9
20260506015830 49 217 0.9 2.6 0.00 0.06 0.06 58 1010.1
20260506015327 49 241 1.7 1.7 0.00 0.06 0.06 59 1009.9
20260506014824 50 237 4.3 4.3 0.00 0.06 0.06 56 1009.9
20260506014321 50 234 0.9 4.3 0.00 0.06 0.06 57 1009.4
20260506013817 50 232 0.9 2.6 0.00 0.06 0.06 55 1009.5
20260506013315 50 260 4.3 8.7 0.00 0.06 0.06 54 1009.5
20260506012811 50 235 0.0 6.1 0.00 0.06 0.06 57 1009.5
20260506012308 50 247 0.9 2.6 0.00 0.06 0.06 57 1009.4
20260506011805 50 216 2.6 4.3 0.00 0.06 0.06 55 1009.3
20260506011302 50 224 0.0 0.0 0.00 0.06 0.06 55 1009.3
20260506010800 50 239 0.0 1.7 0.00 0.06 0.06 54 1009.3
20260506010257 50 276 2.6 4.3 0.00 0.06 0.06 53 1009.3
20260506005754 50 244 0.9 2.6 0.00 0.06 0.06 53 1009.2
20260506005251 50 240 1.7 2.6 0.00 0.06 0.06 54 1009.3
20260506004747 51 243 3.5 10.4 0.00 0.06 0.06 51 1009.5
20260506004245 51 250 0.0 4.3 0.00 0.06 0.06 53 1009.3
20260506003740 51 252 6.1 7.8 0.00 0.06 0.06 50 1009.3
20260506003237 51 233 1.7 10.4 0.00 0.06 0.06 51 1009.3
20260506002733 51 239 2.6 7.8 0.00 0.06 0.06 51 1009.4
20260506002229 51 249 6.1 7.8 0.00 0.06 0.06 49 1009.3
20260506001725 51 266 2.6 7.8 0.00 0.06 0.06 49 1009.3
20260506001223 51 245 2.6 10.4 0.00 0.06 0.06 49 1009.2
20260506000720 51 258 6.1 8.7 0.00 0.06 0.06 48 1009.1
20260506000219 52 245 2.6 8.7 0.00 0.06 0.06 48 1009.3
20260505235714 52 254 4.3 8.7 0.00 0.06 0.06 48 1009.0
20260505235212 52 270 1.7 6.1 0.00 0.06 0.06 49 1009.2
20260505234709 52 240 3.5 7.8 0.00 0.06 0.06 48 1008.9
20260505234206 52 241 2.6 4.3 0.00 0.06 0.06 48 1008.9
20260505233702 52 235 7.8 10.4 0.00 0.06 0.06 49 1008.8
20260505233200 52 224 4.3 6.1 0.00 0.06 0.06 49 1008.8
20260505232658 52 235 2.6 4.3 0.00 0.06 0.06 49 1008.7
20260505232155 53 252 4.3 6.1 0.00 0.06 0.06 49 1008.7
20260505231651 53 292 5.2 10.4 0.00 0.06 0.06 51 1008.8
20260505231150 53 259 6.1 8.7 0.00 0.06 0.06 52 1008.7
20260505230648 53 244 2.6 4.3 0.00 0.06 0.06 55 1008.6
20260505230145 53 226 0.0 2.6 0.00 0.06 0.06 57 1008.5
20260505225640 53 233 2.6 6.1 0.00 0.06 0.06 56 1008.6
20260505225137 53 215 7.0 8.7 0.00 0.06 0.06 55 1008.6
20260505224633 53 225 1.7 6.1 0.00 0.06 0.06 54 1008.9
20260505224131 53 256 3.5 10.4 0.00 0.06 0.06 56 1009.0
20260505223629 53 252 0.9 7.8 0.00 0.06 0.06 56 1008.9
20260505223124 53 241 1.7 4.3 0.00 0.06 0.06 54 1008.8
20260505222621 53 267 5.2 7.8 0.00 0.06 0.06 53 1008.7
20260505222117 53 250 4.3 12.2 0.00 0.06 0.06 53 1008.8
20260505221614 53 271 4.3 8.7 0.00 0.06 0.06 54 1008.9
20260505221111 53 224 3.5 4.3 0.00 0.06 0.06 55 1008.7
20260505220608 53 223 2.6 10.4 0.00 0.06 0.06 54 1008.8
20260505220106 53 232 8.7 12.2 0.00 0.06 0.06 55 1008.8
20260505215603 53 250 4.3 8.7 0.00 0.06 0.06 57 1008.8
20260505215101 53 234 1.7 6.1 0.00 0.06 0.06 57 1008.8
20260505214559 53 294 7.0 7.8 0.00 0.06 0.06 57 1008.8
20260505214056 53 258 7.8 10.4 0.00 0.06 0.06 56 1008.9
20260505213554 53 258 3.5 13.0 0.00 0.06 0.06 57 1008.8
20260505213050 53 237 6.1 8.7 0.00 0.06 0.06 57 1008.9
20260505212546 53 236 1.7 10.4 0.00 0.06 0.06 58 1008.7
20260505212044 54 245 12.2 18.2 0.00 0.06 0.06 57 1008.7
20260505211540 54 337 7.8 12.2 0.00 0.06 0.06 62 1008.8
20260505211037 54 227 0.0 2.6 0.00 0.06 0.06 65 1008.8
20260505210534 54 248 5.2 8.7 0.00 0.06 0.06 65 1008.9
20260505210031 54 247 2.6 7.8 0.00 0.06 0.06 67 1008.8
20260505205529 54 221 0.9 7.8 0.00 0.06 0.06 67 1009.0
20260505205026 54 251 10.4 12.2 0.00 0.06 0.06 67 1008.9
20260505204524 54 290 3.5 8.7 0.00 0.06 0.06 66 1008.8
20260505204021 54 325 1.7 4.3 0.00 0.06 0.06 66 1008.9
20260505203517 54 215 5.2 8.7 0.00 0.06 0.06 67 1008.8
20260505203014 54 289 2.6 10.4 0.00 0.06 0.06 67 1009.1
20260505202510 54 237 1.7 8.7 0.00 0.06 0.06 66 1008.7
20260505202006 53 238 2.6 7.8 0.00 0.06 0.06 67 1008.7
20260505201504 54 225 6.1 16.5 0.00 0.06 0.06 66 1008.8
20260505201001 54 293 1.7 7.8 0.00 0.06 0.06 65 1008.8
20260505200459 54 251 4.3 13.0 0.00 0.06 0.06 65 1008.7
20260505195954 54 150 4.3 10.4 0.00 0.06 0.06 65 1009.0
20260505195451 55 286 2.6 12.2 0.00 0.06 0.06 65 1008.8
20260505194949 54 246 1.7 6.1 0.00 0.06 0.06 64 1008.8
20260505194446 54 195 5.2 10.4 0.00 0.06 0.06 64 1008.7
20260505193946 54 215 2.6 6.1 0.00 0.06 0.06 65 1008.6
20260505193444 55 227 5.2 12.2 0.00 0.06 0.06 64 1008.8
20260505192941 55 197 3.5 12.2 0.00 0.06 0.06 63 1008.8
20260505192440 54 246 2.6 8.7 0.00 0.06 0.06 63 1009.0
20260505191937 54 225 2.6 8.7 0.00 0.06 0.06 64 1009.0
20260505191436 54 305 7.0 10.4 0.00 0.06 0.06 63 1009.1
20260505190932 54 327 3.5 10.4 0.00 0.06 0.06 64 1008.8
20260505190427 54 236 4.3 6.1 0.00 0.06 0.06 64 1009.0
20260505185923 54 250 2.6 7.8 0.00 0.06 0.06 64 1009.0
20260505185420 54 319 8.7 16.5 0.00 0.06 0.06 63 1009.1
20260505184916 54 286 6.1 8.7 0.00 0.06 0.06 62 1008.8
20260505184413 54 263 4.3 13.0 0.00 0.06 0.06 61 1008.9
20260505183910 54 247 4.3 12.2 0.00 0.06 0.06 61 1009.1
20260505183407 55 239 5.2 12.2 0.00 0.06 0.06 61 1008.8
20260505182903 55 261 5.2 8.7 0.00 0.06 0.06 59 1008.7
20260505182400 55 254 8.7 22.6 0.00 0.06 0.06 59 1008.8
20260505181857 55 290 6.1 10.4 0.00 0.06 0.06 62 1008.6
20260505181354 55 224 8.7 14.8 0.00 0.06 0.06 59 1008.5
20260505180851 55 233 4.3 7.8 0.00 0.06 0.06 64 1008.2
20260505180347 56 298 5.2 12.2 0.00 0.06 0.06 61 1008.3